EDT,Max TemperatureF,Mean TemperatureF,Min TemperatureF,Max Dew PointF,MeanDew PointF,Min DewpointF,Max Humidity, Mean Humidity, Min Humidity, Max Sea Level PressureIn, Mean Sea Level PressureIn, Min Sea Level PressureIn, Max VisibilityMiles, Mean VisibilityMiles, Min VisibilityMiles, Max Wind SpeedMPH, Mean Wind SpeedMPH, Max Gust SpeedMPH,PrecipitationIn, CloudCover, Events, WindDirDegrees
2012-9-1,86,74,65,66,63,61,93,70,45,30.10,30.01,29.88,10,10,10,9,4,,0.00,4,,58
2012-9-2,79,70,58,67,62,57,96,76,53,30.15,30.09,30.04,10,10,3,7,2,,0.32,4,Rain,146
2012-9-3,79,65,51,61,55,52,100,89,49,30.22,30.17,30.12,10,6,0,9,2,,0.00,2,Fog-Rain,44
2012-9-4,75,70,64,73,65,56,100,86,69,30.14,30.00,29.85,10,10,10,8,1,,0.03,8,Rain,240
2012-9-5,83,74,65,74,72,65,100,92,56,29.84,29.77,29.73,10,7,0,18,9,25,0.98,7,Fog-Rain-Thunderstorm,199
2012-9-6,79,70,62,68,65,63,100,91,61,29.93,29.88,29.84,10,6,0,12,1,,0.00,3,Fog,200
2012-9-7,87,78,68,72,68,66,100,89,49,29.95,29.91,29.86,10,8,2,12,2,,0.00,6,Thunderstorm,186
2012-9-8,83,71,62,73,68,61,100,85,62,29.87,29.73,29.58,10,9,1,36,10,53,0.71,7,Rain-Thunderstorm,199
2012-9-9,75,66,57,63,56,53,100,75,46,29.87,29.82,29.75,10,10,10,8,4,,0.03,2,Rain,318
2012-9-10,70,60,47,56,48,42,97,67,40,30.11,29.97,29.87,10,10,10,15,7,22,0.00,2,,1
2012-9-11,73,57,41,50,45,40,100,76,32,30.29,30.23,30.12,10,8,1,10,2,,0.00,0,,9
2012-9-12,79,60,41,55,45,41,100,91,40,30.37,30.32,30.30,10,3,0,9,1,,0.00,0,Fog,86
2012-9-13,82,64,46,62,51,46,100,94,41,30.38,30.35,30.26,10,2,0,10,1,,0.00,0,Fog,79
2012-9-14,82,66,51,64,58,52,100,93,46,30.28,30.23,30.08,10,2,0,14,1,,0.00,2,Fog,200
2012-9-15,72,58,44,62,51,44,100,75,41,30.10,30.07,30.04,10,9,2,18,5,24,0.02,3,Rain,301
2012-9-16,71,56,41,50,44,39,100,87,34,30.11,30.07,30.01,10,6,1,13,1,,0.00,0,,305
2012-9-17,76,58,39,57,42,37,100,92,48,30.12,30.08,30.02,10,4,0,8,1,,0.00,0,Fog,93
2012-9-18,74,62,50,70,61,50,100,94,78,30.04,29.85,29.63,10,7,1,29,7,47,0.85,5,Rain-Thunderstorm,162
2012-9-19,68,56,44,68,53,41,100,76,38,30.21,29.90,29.69,10,10,10,18,10,25,0.00,5,Rain,312
2012-9-20,70,56,41,50,45,40,98,70,43,30.27,30.20,30.14,10,10,10,7,2,,0.00,2,,99
2012-9-21,73,60,46,53,50,45,98,73,47,30.16,30.10,30.04,10,10,10,8,2,,0.00,3,,95
2012-9-22,74,60,46,63,54,46,100,91,57,30.03,29.94,29.80,10,6,0,24,4,28,0.57,4,Fog-Rain-Thunderstorm,225
2012-9-23,67,54,42,63,50,39,100,86,36,30.11,29.97,29.82,10,8,1,17,4,28,0.04,3,Rain,296
2012-9-24,65,50,37,46,40,37,100,92,39,30.16,30.12,30.08,10,4,1,12,1,,0.00,2,Fog-Rain,12
2012-9-25,72,54,35,54,38,34,100,91,33,30.17,30.14,30.10,10,4,1,17,1,23,0.00,0,,173
2012-9-26,71,64,59,63,59,54,94,79,67,30.12,30.05,30.01,10,10,10,18,10,24,0.00,7,Rain,193
2012-9-27,70,59,48,61,55,44,100,95,40,30.24,30.07,30.01,10,2,0,14,2,18,0.00,0,Fog,65
2012-9-28,54,52,50,54,52,48,100,95,80,30.24,30.10,29.99,10,6,1,13,6,,1.15,8,Rain,360
2012-9-29,59,55,51,55,53,52,100,93,80,29.97,29.93,29.89,10,9,2,9,5,,0.01,8,,3
2012-9-30,66,56,48,55,53,48,100,87,62,29.91,29.82,29.72,10,10,6,9,2,,0.04,7,Rain-Thunderstorm,333